[[{"header":{"parameterUnit":"m.s-1","parameterCategory":1,"la1":30.2991,"la2":30.254,"lo1":-89.0895,"lo2":-89.0444,"dy":0.0017,"dx":0.0017,"nx":28,"ny":28,"refTime":"2023-09-20T09:00:00:Z","depth":0,"parameterNumber":2,"parameterNumberName":"U-component_of_WINDS"},"data":[0,0,0,0,0,0,0,0,0,0,0,0,0,0,0,0,0,0,0,0,0,0,0,0,0,0,0,0,0,0,0,0,0,0,0,0,0,0,0,0,0,0,0,0,0,0,0,0,0,0,0,0,0,0,0,0,0,0,-6.915,-6.915,0,-6.9185,-6.9185,-6.9186,-6.9074,-6.9071,-6.9068,-6.9064,-6.9102,-6.9106,-6.911,0,0,0,0,0,0,0,0,0,0,0,0,0,-6.8989,-6.8992,-6.915,-6.915,-6.9151,-6.9185,-6.9185,-6.9186,-6.9075,-6.9071,-6.9067,-6.9063,-6.91,-6.9105,-6.911,0,0,0,0,0,0,0,0,0,0,0,0,0,-6.9045,-6.8994,-6.915,-6.9099,-6.9095,-6.9185,-6.9185,-6.9186,-6.9076,-6.9071,-6.9066,-6.9061,-6.9099,-6.9105,-6.9111,-6.9251,0,0,-6.913,-6.9133,0,0,0,0,0,0,0,0,-6.9042,-6.9051,-6.9106,-6.9103,-6.9099,-6.912,-6.9142,-6.9208,-6.9077,-6.9083,-6.9064,-6.9058,-6.9112,-6.9117,-6.9135,-6.9253,-6.9254,-6.913,-6.9134,-6.9137,-6.9139,0,0,0,0,0,0,0,-6.9038,-6.9049,-6.9164,-6.9107,-6.9103,-6.9076,-6.9078,-6.9154,-6.9126,-6.9082,-6.9074,-6.908,-6.9109,-6.9129,-6.9135,-6.9255,-6.913,-6.9136,-6.914,-6.9142,-6.9492,-6.9497,0,0,0,0,0,0,-6.9041,-6.9046,-6.9163,-6.9165,-6.9057,-6.9083,-6.9086,-6.9118,-6.9125,-6.9121,-6.9084,-6.9075,-6.9121,-6.9128,-6.9136,-6.93,-6.9137,-6.9143,-6.9146,-6.9486,-6.9493,-6.9499,0,0,0,0,0,0,-6.9038,-6.9052,-6.9161,-6.9104,-6.9115,-6.9091,-6.9129,-6.9122,-6.9141,-6.9126,-6.9121,-6.911,-6.9117,-6.9127,-6.9223,-6.93,-6.9146,-6.9151,-6.948,-6.9489,-6.9496,-6.9631,0,0,0,0,0,0,-6.9034,-6.9052,-6.9104,-6.9105,-6.9119,-6.9248,-6.9134,-6.9126,-6.9152,-6.914,-6.9148,-6.9145,-6.9114,-6.9215,-6.923,-6.9306,-6.9156,-6.9473,-6.9484,-6.9494,-6.962,-6.9643,-6.9663,0,0,0,0,0,-6.9028,-6.914,-6.9107,-6.9122,-6.9183,-6.9252,-6.926,-6.9221,-6.9159,-6.9212,-6.9202,-6.9145,-6.929,-6.9226,-6.9241,-6.9321,-6.9468,-6.9481,-6.9493,-6.961,-6.9639,-6.9663,0,0,0,0,0,0,-6.9148,-6.914,-6.9102,-6.9218,-6.9237,-6.9233,-6.9298,-6.9253,-6.929,-6.9277,-6.9228,-6.9231,-6.9337,-6.9339,-6.9267,-6.9458,-6.9368,-6.9385,-6.9452,-6.9479,-6.95,-6.9497,-6.9161,0,0,0,0,0,-6.9188,-6.9244,-6.9234,-6.9338,-6.9349,-6.9323,-6.9351,-6.932,-6.9338,-6.9345,-6.9342,-6.9362,-6.9412,-6.9446,-6.9491,-6.9621,-6.9621,-6.9683,-6.9705,-6.9723,-6.9737,-6.9807,-6.9834,-6.954,-6.954,-6.954,0,0,-6.9271,-6.9273,-6.9312,-6.9362,-6.9372,-6.9433,-6.933,-6.9397,-6.9442,-6.9355,-6.9446,-6.9446,-6.9465,-6.9579,-6.9629,-6.9583,-6.9819,-6.9739,-6.9753,-6.9758,-6.9823,-6.9851,-6.9875,-6.9549,-6.9547,-6.9546,0,0,-6.9452,-6.946,-6.9547,-6.9561,-6.9578,-6.9561,-6.9582,-6.9587,-6.9583,-6.9673,-6.961,-6.9663,-6.975,-6.9767,-6.9786,-6.9978,-6.9927,-6.9995,-7.0107,-7.0176,-7.0199,-7.0219,-7.0288,-7.0313,-7.0009,-7.001,-7.001,0,-6.9553,-6.964,-6.9598,-6.967,-6.9694,-6.962,-6.9709,-6.9724,-6.9756,-6.9775,-6.9725,-6.9834,-6.9841,-6.9958,-7.0006,-7.0024,-7.0048,-6.9992,-7.0199,-7.0219,-7.0237,-7.0302,-7.0328,-7.0018,-7.0017,-7.0016,-7.0015,0,-6.9763,-6.9825,-6.9894,-6.9927,-6.9959,-7.0039,-7.001,-7.0049,-7.0016,-7.0005,-7.0099,-7.0106,-7.0152,-7.0178,-7.0146,-7.0292,-7.0263,-7.0207,-7.0116,-7.0274,-7.0334,-7.0359,-7.0029,-7.0026,-7.0024,-7.0022,0,0,-7.0017,-7.0028,-7.0054,-7.0069,-7.0085,-7.0132,-7.0211,-7.0255,-7.0289,-7.0316,-7.038,-7.0457,-7.0406,-7.0428,-7.0399,-7.0459,-7.0611,-7.0395,-7.0395,-7.0435,-7.0773,-7.0814,-7.0843,-7.0579,-7.0583,-7.0587,-7.0771,0,-7.0196,-7.0328,-7.0294,-7.0426,-7.0483,-7.0416,-7.0484,-7.0502,-7.0494,-7.0542,-7.0534,-7.0589,-7.0517,-7.053,-7.0588,-7.0581,-7.0678,-7.0567,-7.0638,-7.0641,-7.0634,-7.0875,-7.0918,-7.1091,-7.0794,-7.0798,-7.0801,0,-7.042,-7.0455,-7.0593,-7.0601,-7.0624,-7.0686,-7.0725,-7.0772,-7.0792,-7.0782,-7.081,-7.0769,-7.0848,-7.0758,-7.0866,-7.0791,-7.0819,-7.0821,-7.0827,-7.083,-7.0729,-7.0884,-7.1145,-7.1171,-7.0837,-7.0835,-7.0832,0,-7.0591,-7.0673,-7.0766,-7.0781,-7.0793,-7.0839,-7.0846,-7.0861,-7.0891,-7.0926,-7.0946,-7.099,-7.1014,-7.105,-7.1023,-7.096,-7.1137,-7.1044,-7.1131,-7.1132,-7.1169,-7.1167,-7.1438,-7.119,-7.119,-7.1189,-7.1188,0,-7.0792,-7.088,-7.0844,-7.0901,-7.0997,-7.0959,-7.1055,-7.1055,-7.107,-7.1127,-7.1072,-7.1127,-7.1088,-7.1141,-7.112,-7.1213,-7.1225,-7.122,-7.1213,-7.1224,-7.1225,-7.124,-7.1227,-7.1196,-7.1194,-7.1193,-7.1192,0,-7.0999,-7.0978,-7.1075,-7.108,-7.1083,-7.1154,-7.1158,-7.1212,-7.1202,-7.1275,-7.129,-7.1273,-7.1332,-7.131,-7.1373,-7.1359,-7.1478,-7.1456,-7.1471,-7.1465,-7.1553,-7.1545,-7.1842,-7.1879,-7.1609,-7.1611,-7.1613,0,-7.1127,-7.1193,-7.1205,-7.1239,-7.1251,-7.1306,-7.1337,-7.1303,-7.1337,-7.1367,-7.1418,-7.1472,-7.1513,-7.1611,-7.1605,-7.1654,-7.1632,-7.1733,-7.1639,-7.1648,-7.1633,-7.1629,-7.1636,-7.1751,-7.1755,-7.1757,-7.1759,0,-7.1359,-7.1346,-7.1391,-7.1435,-7.1474,-7.1506,-7.1534,-7.1566,-7.1533,-7.1575,-7.1635,-7.1667,-7.1732,-7.1787,-7.1831,-7.1839,-7.1795,-7.179,-7.1812,-7.1823,-7.1828,-7.1826,-7.1521,-7.1782,-7.178,-7.1778,-7.1777,-7.1776,-7.1529,-7.1585,-7.1602,-7.1656,-7.1674,-7.1702,-7.1753,-7.175,-7.1799,-7.1848,-7.1826,-7.1896,-7.1916,-7.1971,-7.1986,-7.2041,-7.2002,-7.2034,-7.2042,-7.2051,-7.2062,-7.1822,-7.2049,-7.2048,-7.2048,-7.2047,-7.2047,0,-7.1756,-7.1765,-7.1815,-7.1856,-7.1899,-7.1854,-7.1884,-7.1923,-7.1984,-7.2008,-7.205,-7.212,-7.2174,-7.2174,-7.2224,-7.2268,-7.2249,-7.2283,-7.2278,-7.2281,-7.2094,-7.2069,-7.2297,-7.2297,-7.2297,-7.2297,-7.2297,-7.2297,-7.188,-7.1971,-7.1961,-7.2062,-7.207,-7.2138,-7.2159,-7.2185,-7.2203,-7.2284,-7.2328,-7.2328,-7.2342,-7.2394,-7.2442,-7.2441,-7.2462,-7.2503,-7.2494,-7.2319,-7.2294,-7.227,-7.2247,-7.2508,-7.2509,-7.2676,-7.2678,-7.2679]},{"header":{"parameterUnit":"m.s-1","parameterCategory":1,"la1":30.2991,"la2":30.254,"lo1":-89.0895,"lo2":-89.0444,"dy":0.0017,"dx":0.0017,"nx":28,"ny":28,"refTime":"2023-09-20T09:00:00:Z","depth":0,"parameterNumber":3,"parameterNumberName":"V-component_of_WINDS"},"data":[0,0,0,0,0,0,0,0,0,0,0,0,0,0,0,0,0,0,0,0,0,0,0,0,0,0,0,0,0,0,0,0,0,0,0,0,0,0,0,0,0,0,0,0,0,0,0,0,0,0,0,0,0,0,0,0,0,0,0.8588,0.8589,0,0.8621,0.8622,0.8622,0.8696,0.8697,0.8699,0.87,0.8729,0.8729,0.8728,0,0,0,0,0,0,0,0,0,0,0,0,0,0.8586,0.8585,0.8588,0.8589,0.8589,0.8621,0.8622,0.8622,0.8695,0.8697,0.8699,0.8701,0.8729,0.8729,0.8728,0,0,0,0,0,0,0,0,0,0,0,0,0,0.8599,0.8585,0.8588,0.863,0.8634,0.8621,0.8622,0.8622,0.8695,0.8697,0.8699,0.8702,0.873,0.8729,0.8728,0.8676,0,0,0.8725,0.8724,0,0,0,0,0,0,0,0,0.8598,0.8599,0.8623,0.8627,0.8631,0.8657,0.8632,0.864,0.8694,0.8671,0.87,0.8703,0.8703,0.8704,0.8705,0.8678,0.8679,0.8725,0.8724,0.8724,0.8724,0,0,0,0,0,0,0,0.8597,0.8598,0.8601,0.8623,0.8628,0.8646,0.865,0.8634,0.8674,0.8674,0.8679,0.8682,0.8706,0.8706,0.8707,0.8679,0.8725,0.8724,0.8723,0.8723,0.8612,0.861,0,0,0,0,0,0,0.8591,0.8597,0.86,0.8602,0.862,0.8644,0.8649,0.8646,0.8674,0.8681,0.868,0.8686,0.8707,0.8708,0.8708,0.865,0.8724,0.8723,0.8722,0.8614,0.8611,0.8609,0,0,0,0,0,0,0.8591,0.8591,0.8599,0.8601,0.8604,0.8641,0.8638,0.8646,0.8646,0.8679,0.8687,0.8674,0.8708,0.8709,0.8684,0.8652,0.8722,0.8722,0.8617,0.8613,0.861,0.8532,0,0,0,0,0,0,0.859,0.859,0.8571,0.86,0.8603,0.8575,0.8636,0.8645,0.8645,0.8652,0.8675,0.8681,0.871,0.8685,0.8683,0.8652,0.8721,0.862,0.8615,0.8611,0.8538,0.8526,0.8517,0,0,0,0,0,0.859,0.8547,0.857,0.857,0.8581,0.8573,0.8575,0.8611,0.8642,0.8623,0.8645,0.868,0.8656,0.8682,0.868,0.8648,0.8622,0.8617,0.8612,0.8543,0.8529,0.8517,0,0,0,0,0,0,0.8511,0.8551,0.8577,0.8543,0.8554,0.8585,0.8563,0.8595,0.8596,0.8602,0.8646,0.8651,0.8619,0.8632,0.866,0.86,0.8645,0.8639,0.8593,0.858,0.857,0.8567,0.872,0,0,0,0,0,0.849,0.8482,0.8517,0.8483,0.8487,0.8524,0.8522,0.8549,0.8562,0.8567,0.8586,0.8596,0.8591,0.8587,0.8584,0.8541,0.8547,0.8518,0.8507,0.8498,0.8492,0.8471,0.8458,0.8591,0.8591,0.8591,0,0,0.8445,0.8467,0.8458,0.8467,0.848,0.8469,0.8527,0.8513,0.8505,0.8564,0.8542,0.8557,0.8571,0.8537,0.8523,0.8546,0.8457,0.8492,0.8484,0.8483,0.8464,0.8451,0.844,0.8588,0.8588,0.8589,0,0,0.8359,0.8374,0.8348,0.836,0.8378,0.8403,0.8397,0.8424,0.8436,0.8415,0.8459,0.845,0.844,0.8449,0.8452,0.8371,0.8403,0.8369,0.8313,0.8291,0.8281,0.8272,0.8242,0.8231,0.8363,0.8363,0.8363,0,0.8301,0.8288,0.833,0.8314,0.8316,0.8371,0.8345,0.8353,0.8369,0.8369,0.8395,0.8385,0.8398,0.8367,0.8348,0.8349,0.8342,0.8365,0.8279,0.8271,0.8263,0.8235,0.8224,0.8358,0.8359,0.8359,0.836,0,0.8215,0.8205,0.8182,0.8198,0.8198,0.8176,0.8214,0.8209,0.8237,0.8259,0.8237,0.8256,0.8258,0.8253,0.8279,0.8225,0.8239,0.8272,0.8317,0.8245,0.822,0.821,0.8352,0.8354,0.8355,0.8356,0,0,0.8077,0.8119,0.8109,0.8118,0.8143,0.8136,0.8117,0.8121,0.8115,0.8125,0.8109,0.8101,0.8132,0.8135,0.8163,0.8144,0.8079,0.818,0.8181,0.8159,0.8021,0.7995,0.7982,0.8102,0.81,0.8098,0.8019,0,0.7996,0.7967,0.8005,0.7967,0.7959,0.8012,0.7996,0.8009,0.8029,0.8024,0.8047,0.804,0.8082,0.8084,0.8068,0.809,0.8051,0.8097,0.8086,0.8085,0.808,0.7969,0.7942,0.7867,0.801,0.8008,0.8007,0,0.7896,0.7903,0.7865,0.7894,0.7891,0.7876,0.7883,0.7878,0.7895,0.7911,0.7916,0.795,0.7933,0.7979,0.7955,0.7985,0.7983,0.7994,0.7992,0.7991,0.8041,0.7964,0.7843,0.7832,0.7992,0.7993,0.7994,0,0.7799,0.7798,0.7776,0.7781,0.7814,0.7802,0.7815,0.7834,0.7835,0.7841,0.7841,0.7845,0.7846,0.7848,0.7882,0.7912,0.7854,0.7902,0.7866,0.7865,0.785,0.785,0.7725,0.785,0.7851,0.7851,0.7851,0,0.7703,0.7677,0.7733,0.7718,0.7691,0.7736,0.7707,0.7726,0.7742,0.7732,0.7778,0.7767,0.7814,0.7808,0.7834,0.7811,0.7811,0.7823,0.783,0.7818,0.7816,0.7816,0.7822,0.7848,0.7848,0.7849,0.785,0,0.7588,0.7625,0.7603,0.7638,0.7646,0.7624,0.7653,0.7641,0.7666,0.7652,0.7652,0.7689,0.7685,0.772,0.7721,0.7739,0.7702,0.7719,0.7697,0.7702,0.7663,0.7666,0.7533,0.7518,0.7653,0.7652,0.7651,0,0.7524,0.7506,0.7539,0.7537,0.7548,0.7543,0.7544,0.7587,0.7587,0.7605,0.759,0.759,0.7592,0.7582,0.7609,0.7611,0.7627,0.7581,0.7627,0.7616,0.7626,0.7626,0.7624,0.757,0.7568,0.7567,0.7566,0,0.7406,0.7426,0.7426,0.7433,0.7434,0.7441,0.7452,0.7447,0.7494,0.7491,0.7488,0.7489,0.7492,0.7491,0.7498,0.7511,0.7546,0.7552,0.7543,0.753,0.7518,0.7523,0.7669,0.7554,0.7555,0.7556,0.7557,0.7557,0.7314,0.7301,0.7323,0.7322,0.7335,0.7344,0.7335,0.7359,0.7358,0.7365,0.7391,0.7383,0.7401,0.7414,0.7424,0.7418,0.744,0.7428,0.7425,0.7421,0.7414,0.752,0.742,0.742,0.742,0.7421,0.7421,0,0.7198,0.7216,0.7215,0.7229,0.7228,0.7264,0.7278,0.7274,0.7268,0.7282,0.7284,0.7281,0.728,0.7308,0.7311,0.7301,0.7317,0.73,0.7301,0.7303,0.7394,0.7401,0.7287,0.7287,0.7287,0.7287,0.7287,0.7287,0.7138,0.7117,0.7139,0.7126,0.7143,0.7137,0.7142,0.715,0.7162,0.7157,0.7158,0.7177,0.7196,0.7202,0.7203,0.7211,0.7209,0.7187,0.72,0.7284,0.7297,0.7309,0.7316,0.7186,0.7186,0.711,0.711,0.7109]}]]